Regional Weather Roundup
Issued by NWS San Angelo, TX

Home | Current Version | Previous Version | Text Only | Print | Product List | Glossary On
Versions: 1 2 3 4 5 6 7 8 9 10 11 12 13 14 15 16 17 18 19 20 21 22 23 24 25 26 27 28 29 30 31 32 33 34 35 36 37 38 39 40 41 42 43 44 45 46 47 48 49 50
000
ASUS44 KSJT 270610
RWRSJT
WEST CENTRAL TEXAS REGIONAL WEATHER ROUNDUP
NATIONAL WEATHER SERVICE SAN ANGELO TX
1200 AM CST FRI FEB 27 2015

NOTE: "FAIR" INDICATES FEW OR NO CLOUDS BELOW 12,000 FEET WITH NO
SIGNIFICANT WEATHER AND/OR OBSTRUCTIONS TO VISIBILITY.

TXZ049-054-064>066-071>073-076>078-098-099-113-114-127-128-139-140-
154-155-168>170-270700
...LOCATIONS ACROSS WEST CENTRAL TEXAS...

CITY           SKY/WX    TMP DP  RH WIND       PRES   REMARKS
SAN ANGELO     CLOUDY    29  17  61 NE13      30.32S WCI  19
ABILENE        CLOUDY    26  11  52 NE10G20   30.37S WCI  16
DYESS AFB      NOT AVBL
JUNCTION       CLOUDY    31  19  61 E10       30.30F WCI  22
SWEETWATER     CLOUDY    26  13  59 NE12G22   30.35F WCI  15
BROWNWOOD      CLOUDY    30  16  55 NE6       30.38S WCI  24
COLEMAN        CLOUDY    30  18  62 NE14      30.36S WCI  19
SONORA         CLOUDY    30  16  55 NE12G18   30.32S WCI  21
OZONA          CLOUDY    30  19  64 NE13G20   30.29F WCI  20
BRADY          CLOUDY    28  18  64 N10       30.32S WCI  19
$$

TEXAS PANHANDLE/OKLAHOMA PANHANDLE

CITY           SKY/WX    TMP DP  RH WIND       PRES   REMARKS
AMARILLO       CLOUDY    20   5  52 E16       30.29F WCI   6
BORGER         CLOUDY    22   4  46 E10       30.34S WCI  11
CANADIAN       CLOUDY    23   0  36 E7        30.40F WCI  15
DALHART        LGT SNOW  19  12  74 E16       30.26F WCI   4
DUMAS          FLURRIES  18   9  67 E10       30.29F WCI   7
GUYMON         NOT AVBL
HEREFORD       CLOUDY    22  15  75 E12       30.26F WCI  11
PAMPA          CLOUDY    19   3  49 E14       30.33F WCI   6
PERRYTON       CLOUDY    20   2  45 E10       30.36F WCI   9
$$

SOUTHERN PANHANDLE/SOUTH PLAINS/ROLLING PLAINS

CITY           SKY/WX    TMP DP  RH WIND       PRES   REMARKS
LUBBOCK        CLOUDY    22  11  62 E13       30.27S WCI  10
SNYDER         CLOUDY    25   7  46 NE14G23   30.32F WCI  14
CHILDRESS      CLOUDY    25   1  35 E9        30.42S WCI  15
SEMINOLE       CLOUDY    25  11  54 E15       30.25F WCI  13
$$

PERMIAN BASIN

CITY           SKY/WX    TMP DP  RH WIND       PRES   REMARKS
MIDLAND        CLOUDY    27  14  58 E16       30.25F WCI  15
ODESSA         CLOUDY    27  13  55 E17       30.25F WCI  14
WINK           CLOUDY    30  16  56 E12       30.23F WCI  20
$$

FAR WEST/SOUTHWEST MOUNTAINS/TRANS PECOS

CITY           SKY/WX    TMP DP  RH WIND       PRES   REMARKS
ALPINE         CLOUDY    26  24  96 NE9       30.19F WCI  16
DRYDEN           N/A     33  23  66 NE13      30.24S WCI  24
EL PASO        MOCLDY    34  24  67 NE15      30.03R WCI  24
FORT STOCKTON  CLOUDY    27  20  75 E13       30.23F WCI  16
GUADALUPE PASS FRZ RAIN  20  19  96 NE38      29.98F VSB 3/4 WCI  -1
MARFA          CLOUDY    27  25  93 NE15G21   30.10F WCI  15
PECOS          CLOUDY    29  19  66 E15       30.26S WCI  18
$$

DALLAS/FORT WORTH METROPLEX

CITY           SKY/WX    TMP DP  RH WIND       PRES   REMARKS
DFW AIRPORT    CLOUDY    30  11  45 NE20G28   30.41F WCI  17
FTW MEACHAM    CLOUDY    32  16  51 N13       30.42R WCI  22
DAL-EXECUTIVE  CLOUDY    31  13  47 NE9       30.40F WCI  23
GRAND PRAIRIE  CLOUDY    32  18  56 N12G17    30.43S WCI  23
ADDISON        PTCLDY    31  12  46 N10       30.45R WCI  22
MESQUITE       CLOUDY    31  15  53 N9G18     30.43S WCI  22
LANCASTER      CLOUDY    31  13  48 N12G21    30.43S WCI  21
$$

NORTH CENTRAL TEXAS

CITY           SKY/WX    TMP DP  RH WIND       PRES   REMARKS
SHRMAN/DENISON CLOUDY    28  15  56 NE10G17   30.45F WCI  19
GAINESVILLE    CLOUDY    28   9  43 NE14G20   30.45S WCI  17
BRIDGEPORT     CLOUDY    30  12  47 NE10G18   30.45F WCI  21
DENTON         MOCLDY    29  13  51 N12       30.44R WCI  19
WAXAHACHIE     CLOUDY    31  19  60 N10       30.41F WCI  22
GRANBURY       CLOUDY    33  19  55 N10G17    30.43S WCI  25
$$

WESTERN NORTH TEXAS

CITY           SKY/WX    TMP DP  RH WIND       PRES   REMARKS
WICHITA FALLS  CLOUDY    27   6  41 N12       30.47S WCI  17
VERNON         CLOUDY    28  -3  25 NE9       30.47F WCI  20
BRECKENRIDGE   CLOUDY    30  13  50 NE10      30.40F WCI  21
COMANCHE       CLOUDY    30  18  62 NE12      30.37F WCI  20
$$

CENTRAL AND SOUTH CENTRAL TEXAS

CITY           SKY/WX    TMP DP  RH WIND       PRES   REMARKS
AUSTIN/BERGSTM CLOUDY    37  22  54 N17       30.36R WCI  27
WACO           CLOUDY    34  22  61 N8        30.40R WCI  27
HILLSBORO      CLOUDY    33  19  55 N9        30.40R WCI  26
TEMPLE         CLOUDY    34  18  51 N12       30.37R WCI  25
KILLEEN-GRAY   NOT AVBL
FORT HOOD      NOT AVBL
GEORGETOWN     CLOUDY    36  19  51 NE12G21   30.37S WCI  27
LAGO VISTA     CLOUDY    34  22  60 NE8       30.35R WCI  27
SAN MARCOS     CLOUDY    37  21  52 NE20      30.35F WCI  27
NEW BRAUNFELS  CLOUDY    38  23  55 NE16G25   30.32F WCI  29
RANDOLPH AFB   NOT AVBL
SAN ANTONIO    CLOUDY    38  25  59 N14       30.32F WCI  30
STINSON        CLOUDY    39  23  52 NE16G23   30.31F WCI  30
PLEASANTON     NOT AVBL
LA GRANGE      CLEAR     36  28  74 N8        30.33S WCI  29
GIDDINGS       CLOUDY    37  25  63 N10G18    30.38S WCI  29
$$

EAST TEXAS

CITY           SKY/WX    TMP DP  RH WIND       PRES   REMARKS
PARIS          MOCLDY    28  12  50 N10G16    30.44S WCI  19
CLARKSVILLE    NOT AVBL
TYLER          PTCLDY    33  20  58 N9        30.37F WCI  25
LONGVIEW       CLOUDY    35  22  58 NE9       30.37F WCI  28
PALESTINE      CLOUDY    34  23  64 N7        30.39S WCI  28
NACOGDOCHES    CLEAR     30  27  86 CALM      30.37F
$$

TEXAS HILL COUNTRY AND EDWARDS PLATEAU

CITY           SKY/WX    TMP DP  RH WIND       PRES   REMARKS
LLANO          CLOUDY    34  21  60 E9        30.39F WCI  26
HORSESHOE BAY  CLOUDY    34  20  56 NE6       30.36S WCI  29
KERRVILLE      CLOUDY    31  21  66 NE9G17    30.30F WCI  23
FREDERICKSBRG  CLOUDY    31  21  67 NE9       30.31S WCI  23
ROCKSPRINGS    NOT AVBL
HONDO          CLOUDY    37  25  61 NE15      30.31F WCI  28
UVALDE         MOCLDY    37  28  69 NE12      30.28F WCI  29
DEL RIO        CLOUDY    41  26  55 NE6       30.29R WCI  37
$$

SOUTHEAST TEXAS

CITY           SKY/WX    TMP DP  RH WIND       PRES   REMARKS
COLLEGE STN    CLOUDY    36  25  64 N9        30.37S WCI  29
CALDWELL       CLOUDY    36  27  69 N7        30.39F WCI  30
CROCKETT       PTCLDY    36  32  87 N3        30.41S
BRENHAM        PTCLDY    37  30  75 N5        30.36F WCI  33
HUNTSVILLE     PTCLDY    33  28  81 VRB3      30.35F
CONROE         PTCLDY    36  30  79 VRB5      30.36S WCI  32
HOUSTON BUSH   CLOUDY    39  32  76 NE13      30.34S WCI  31
HOUSTON HOBBY  CLOUDY    40  34  79 NE16      30.33R WCI  31
PERLAND        CLOUDY    41  34  76 NE15G22   30.34S WCI  33
WHARTON        CLEAR     38  33  84 N13       30.33R WCI  30
$$

THE UPPER TEXAS COAST

CITY           SKY/WX    TMP DP  RH WIND       PRES   REMARKS
ORANGE         CLEAR     39  34  81 N6        30.34S WCI  35
PORT ARTHUR    CLEAR     40  33  76 N14       30.31S WCI  32
GALVESTON      MOCLDY    42  36  79 N24G31    30.32R WCI  32
ANGLETON       CLEAR     38  34  85 N12       30.30F WCI  30
BAY CITY       CLEAR     41  37  88 N10       30.30R WCI  34
$$

TEXAS COASTAL BEND, RIO GRANDE PLAINS DEEP SOUTH TEXAS

CITY           SKY/WX    TMP DP  RH WIND       PRES   REMARKS
VICTORIA       CLEAR     40  32  73 N12       30.32R WCI  33
BEEVILLE       FAIR      39  32  76 N13       30.30S WCI  32
ROCKPORT       CLEAR     44  35  70 N20       30.29S WCI  36
PORT ARANSAS   CLEAR     46  39  77 NE20G25   30.27S WCI  38
PORT LAVACA    CLEAR     40  34  79 N16G22    30.31R WCI  32
CORPUS CHRISTI CLEAR     46  37  71 NE23G32   30.27S WCI  38
KINGSVILLE NAS PTCLDY    46  39  76 NE14      30.26S WCI  40
COTULLA        CLOUDY    43  31  62 NE12      30.32R WCI  37
LAREDO         CLOUDY    46  35  65 NE16      30.30R WCI  39
BROWNSVILLE    CLOUDY    56  48  74 NE7       30.20R
PORT ISABEL    CLEAR     57  49  74 NE12      30.20R
HEBBRONVILLE   CLOUDY   N/A N/A N/A NE12G22   30.25R
MCALLEN        PTCLDY    52  45  77 NE6       30.23R
WESLACO        CLEAR     50  45  81 N3        30.21S
FALFURRIAS     CLEAR     49  39  68 NE14      30.24R
EDINBURG       CLOUDY    52  46  79 NE3       30.23R
$$


USA.gov is the U.S. government's official web portal to all federal, state and local government web resources and services.